This is the latest recevied weather packets stored in our database for station/object DG8SBT-13. If no packets are shown the sender has not sent any weather packets the latest 10 day(s).
| Time | Temp. | Humidity | Pressure | Rain* | Wind** | Luminosity | Snow |
|---|---|---|---|---|---|---|---|
| 1777454251 | 23.33° C | 29% | 1022.3 hPa | - | - | - | - |
| 1777452460 | 22.78° C | 28% | 1022.3 hPa | - | - | - | - |
| 1777450669 | 22.78° C | 29% | 1022.4 hPa | - | - | - | - |
| 1777448879 | 22.22° C | 28% | 1022.4 hPa | - | - | - | - |
| 1777447088 | 21.67° C | 29% | 1022.4 hPa | - | - | - | - |
| 1777445297 | 21.11° C | 29% | 1022.4 hPa | - | - | - | - |
| 1777443506 | 21.11° C | 30% | 1022.3 hPa | - | - | - | - |
| 1777441717 | 20.56° C | 31% | 1022.2 hPa | - | - | - | - |
| 1777439926 | 20.56° C | 30% | 1021.9 hPa | - | - | - | - |
| 1777438138 | 20.56° C | 29% | 1021.5 hPa | - | - | - | - |
| 1777436347 | 20.56° C | 29% | 1021.2 hPa | - | - | - | - |
| 1777434556 | 20.56° C | 27% | 1020.9 hPa | - | - | - | - |
| 1777432766 | 20.56° C | 29% | 1020.6 hPa | - | - | - | - |
| 1777430976 | 21.11° C | 28% | 1020.6 hPa | - | - | - | - |
| 1777429189 | 21.11° C | 29% | 1020.4 hPa | - | - | - | - |
| 1777427400 | 21.11° C | 28% | 1020.2 hPa | - | - | - | - |
| 1777425609 | 21.67° C | 30% | 1020.1 hPa | - | - | - | - |
| 1777423820 | 21.67° C | 29% | 1020.2 hPa | - | - | - | - |
| 1777422028 | 22.22° C | 29% | 1020.2 hPa | - | - | - | - |
| 1777418449 | 22.22° C | 28% | 1020.2 hPa | - | - | - | - |
| 1777416658 | 22.78° C | 29% | 1020.2 hPa | - | - | - | - |
| 1777414868 | 22.78° C | 28% | 1020 hPa | - | - | - | - |
| 1777413077 | 23.33° C | 28% | 1020 hPa | - | - | - | - |
| 1777411288 | 23.33° C | 27% | 1019.8 hPa | - | - | - | - |
| 1777409498 | 23.33° C | 28% | 1019.4 hPa | - | - | - | - |
* Rain since midnight (hover to see other rain measurements)
** Current wind speed in m/s (hover to see current wind gust speed)